This demonstration page uses our WeatherBlox Daily Observations layout. Learn more.

Left ArrowRight Arrow

Hourly Observations for April 5, 2020

Temp ( °F °C ) Dew Point ( °F °C ) Humidity (%) Winds ( mph kmh ) Pressure ( in mb ) Visibility ( mi km ) Precip ( " mm )
12:51 am 00:51 Clear 55 12.8 23 -5 29 29 NE 3 6 29.77 1008 10 16.0934 0 0
1:51 am 01:51 Clear 55 12.8 24 -4.4 30 30 ENE 8 13 29.77 1008 10 16.0934 0 0
2:51 am 02:51 Clear 58 14.4 26 -3.3 29 29 E 9 15 29.75 1008 10 16.0934 0 0
3:51 am 03:51 Clear 53 11.7 27 -2.8 37 37 ENE 7 11 29.77 1008 10 16.0934 0 0
4:51 am 04:51 Clear 51 10.6 25 -3.9 36 36 ENE 9 15 29.78 1008 10 16.0934 0 0
5:51 am 05:51 Clear 50 10 26 -3.3 39 39 E 9 15 29.79 1009 10 16.0934 0 0
6:51 am 06:51 Sunny 56 13.3 27 -2.8 33 33 E 5 7 29.8 1009 10 16.0934 0 0
7:51 am 07:51 Sunny 63 17.2 30 -1.1 29 29 E 12 19 29.83 1010 10 16.0934 0 0
8:51 am 08:51 Sunny 64 17.8 29 -1.7 27 27 ESE 7 11 29.83 1010 10 16.0934 0 0
9:51 am 09:51 Sunny 69 20.6 31 -0.6 24 24 SSE 9 15 29.83 1010 10 16.0934 0 0
10:51 am 10:51 Sunny 73 22.8 29 -1.7 19 19 SSE 8 13 29.81 1010 10 16.0934 0 0
11:51 am 11:51 Sunny 76 24.4 25 -3.9 15 15 SSE 13 20 29.78 1009 10 16.0934 0 0
12:51 pm 12:51 Sunny 76 24.4 24 -4.4 14 14 S 7 11 29.77 1008 10 16.0934 0 0
1:51 pm 13:51 Sunny 78 25.6 18 -7.8 10 10 VRB 3 6 29.73 1007 10 16.0934 0 0
2:51 pm 14:51 Sunny 79 26.1 23 -5 12 12 Calm 29.69 1005 10 16.0934 0 0
3:51 pm 15:51 Sunny 80 26.7 21 -6.1 11 11 W 7 11 29.68 1005 10 16.0934 0 0
4:51 pm 16:51 Sunny 79 26.1 20 -6.7 11 11 WNW 5 7 29.68 1005 10 16.0934 0 0
5:51 pm 17:51 Sunny 78 25.6 18 -7.8 10 10 WSW 5 7 29.69 1005 10 16.0934 0 0
6:51 pm 18:51 Clear 73 22.8 16 -8.9 11 11 NW 8 13 29.69 1006 10 16.0934 0 0
7:51 pm 19:51 Clear 66 18.9 22 -5.6 19 19 NW 8 13 29.71 1006 10 16.0934 0 0
8:51 pm 20:51 Clear 66 18.9 23 -5 19 19 NW 8 13 29.74 1007 10 16.0934 0 0
9:51 pm 21:51 Clear 67 19.4 22 -5.6 18 18 WNW 5 7 29.76 1008 10 16.0934 0 0
10:51 pm 22:51 Clear 66 18.9 22 -5.6 19 19 WNW 9 15 29.76 1008 10 16.0934 0 0
11:51 pm 23:51 Clear 64 17.8 24 -4.4 22 22 WNW 9 15 29.78 1009 10 16.0934 0 0

Powered by AerisWeather